WetterOnline ( https://www.wetteronline.de )

Wetter aktuell Schafflund

Aktuelles Wetter: Leck (17m)

6-stündlich | Neueste Meldungen
Ortszeit Temperatur Wetter
Mo, 06.02. 7:00 1.4° C Nebel
Mo, 06.02. 1:00 0.4° C wolkig
So, 05.02. 19:00 2.6° C wolkig
So, 05.02. 13:00 1.5° C wolkig
So, 05.02. 7:00 -0.2° C leichter Schneefall
So, 05.02. 1:00 0.2° C bedeckt
Sa, 04.02. 19:00 -0.5° C bewölkt
Sa, 04.02. 13:00 3.2° C bewölkt
Ortszeit Temperatur Wetter
Mo, 06.02. 10:00 3.2° C bedeckt
Mo, 06.02. 9:50 3.2° C Dunst
Mo, 06.02. 9:40 3.0° C Dunst
Mo, 06.02. 9:30 2.5° C Nebel
Mo, 06.02. 9:20 2.5° C Nebel
Mo, 06.02. 9:10 2.3° C Nebel
Mo, 06.02. 9:00 2.2° C Nebel
Mo, 06.02. 8:30 2.1° C Nebel
Mo, 06.02. 8:00 1.8° C Nebel
Mo, 06.02. 7:30 1.7° C Nebel
Mo, 06.02. 7:00 1.4° C Nebel
Ortszeit Relative Feuchte Sichtweite
Mo, 06.02. 7:00 100% 0.3 km
Mo, 06.02. 1:00 95% 13 km
So, 05.02. 19:00 81% 30 km
So, 05.02. 13:00 92% 20 km
So, 05.02. 7:00 93% 13 km
So, 05.02. 1:00 81% 55 km
Sa, 04.02. 19:00 88% 50 km
Sa, 04.02. 13:00 77% 40 km
Ortszeit Relative Feuchte Sichtweite
Mo, 06.02. 10:00 100% 2.5 km
Mo, 06.02. 9:50 100% -
Mo, 06.02. 9:40 100% -
Mo, 06.02. 9:30 100% 0.5 km
Mo, 06.02. 9:20 100% -
Mo, 06.02. 9:10 99% -
Mo, 06.02. 9:00 98% 0.7 km
Mo, 06.02. 8:30 100% 0.5 km
Mo, 06.02. 8:00 99% 0.3 km
Mo, 06.02. 7:30 100% 0.3 km
Mo, 06.02. 7:00 100% 0.3 km
Ortszeit Niederschlagsmenge Niederschlagsart
Mo, 06.02. 7:00 0.0 l/m2 in 12 Std. -
Mo, 06.02. 1:00 0.0 l/m2 in 6 Std. -
So, 05.02. 19:00 0.8 l/m2 in 12 Std. -
So, 05.02. 13:00 0.8 l/m2 in 6 Std. Schnee, Regen
So, 05.02. 7:00 0.6 l/m2 in 12 Std. Schnee, Regen
So, 05.02. 1:00 0.0 l/m2 in 6 Std. -
Sa, 04.02. 19:00 0.0 l/m2 in 12 Std. -
Sa, 04.02. 13:00 0.0 l/m2 in 6 Std. -
Ortszeit Niederschlagsmenge Niederschlagsart
Mo, 06.02. 10:00 <0.05 l/m2 in 1 Std. Sprühregen
Mo, 06.02. 9:50 keine Meldung -
Mo, 06.02. 9:40 keine Meldung -
Mo, 06.02. 9:30 <0.05 l/m2 in 30 Min -
Mo, 06.02. 9:20 keine Meldung -
Mo, 06.02. 9:10 keine Meldung -
Mo, 06.02. 9:00 <0.05 l/m2 in 1 Std. Sprühregen
Mo, 06.02. 8:30 0.0 l/m2 in 30 Min -
Mo, 06.02. 8:00 0.0 l/m2 in 1 Std. -
Mo, 06.02. 7:30 0.0 l/m2 in 30 Min -
Mo, 06.02. 7:00 0.0 l/m2 in 1 Std. -
Ortszeit Stärke Spitze Richtung
km/h Bft. km/h Grad Sektor
Mo, 06.02. 7:00 4 1 18 310° NW
Mo, 06.02. 1:00 11 2 24 330° NW
So, 05.02. 19:00 11 2 25 320° NW
So, 05.02. 13:00 7 2 22 170° S
So, 05.02. 7:00 13 3 28 160° S
So, 05.02. 1:00 14 3 25 160° S
Sa, 04.02. 19:00 11 2 22 100° O
Sa, 04.02. 13:00 11 2 18 110° O
Ortszeit Stärke Spitze Richtung
km/h Bft. km/h Grad Sektor
Mo, 06.02. 10:00 4 1 11 10° N
Mo, 06.02. 9:50 4 1 - 10° N
Mo, 06.02. 9:40 4 1 - 340° N
Mo, 06.02. 9:30 4 1 11 280° W
Mo, 06.02. 9:20 4 1 - 280° W
Mo, 06.02. 9:10 4 1 - 100° O
Mo, 06.02. 9:00 7 2 9 40° NO
Mo, 06.02. 8:30 4 1 7 290° W
Mo, 06.02. 8:00 4 1 7 310° NW
Mo, 06.02. 7:30 4 1 7 330° NW
Mo, 06.02. 7:00 4 1 7 310° NW
Ortszeit Untergrenze Bedeckung Gattung
total tief tief mittel hoch
Mo, 06.02. 7:00 <30 m 8/8 0/8 - - -
Mo, 06.02. 1:00 4800 m 5/8 5/8 - - -
So, 05.02. 19:00 7500 m 7/8 0/8 - - -
So, 05.02. 13:00 750 m 7/8 5/8 - - -
So, 05.02. 7:00 <30 m 7/8 0/8 - - -
So, 05.02. 1:00 2100 m 8/8 8/8 - - -
Sa, 04.02. 19:00 3000 m 7/8 7/8 - - -
Sa, 04.02. 13:00 510 m 8/8 5/8 - - -
Ortszeit Bedeckungsgrad in Achtel und Wolkenuntergrenze
Mo, 06.02. 10:00 5(30m) 8(690m)
Mo, 06.02. 9:50 5(30m) 8(690m)
Mo, 06.02. 9:40 8
Mo, 06.02. 9:30 8(30m) 8(750m)
Mo, 06.02. 9:20 8(30m) 8(750m)
Mo, 06.02. 9:10 8
Mo, 06.02. 9:00 7(30m) 8(150m) 8(750m)
Mo, 06.02. 8:30 7(30m)
Mo, 06.02. 8:00 8(<30m) 8(4500m)
Mo, 06.02. 7:30 8(<30m) 8(4500m) 8(5100m)
Mo, 06.02. 7:00 8(<30m) 8(4500m) 8(5100m)
Ortszeit Luftdruck NN (hPa) Tendenz (hPa in 3 Std.)
Mo, 06.02. 7:00 1041 - 0,5
Mo, 06.02. 1:00 1041 + 0,5
So, 05.02. 19:00 1039 + 1,5
So, 05.02. 13:00 1036 + 1,2
So, 05.02. 7:00 1034 - 1,1
So, 05.02. 1:00 1037 - 1,1
Sa, 04.02. 19:00 1040 + 0,4
Sa, 04.02. 13:00 1039 + 1,1
Ortszeit Luftdruck NN (hPa) Tendenz (hPa in 3 Std.)
Mo, 06.02. 10:00 1041 + 0,6
Mo, 06.02. 9:50 1041 keine Meldung
Mo, 06.02. 9:40 1041 keine Meldung
Mo, 06.02. 9:30 1041 + 0,7
Mo, 06.02. 9:20 1041 keine Meldung
Mo, 06.02. 9:10 1041 keine Meldung
Mo, 06.02. 9:00 1041 + 0,9
Mo, 06.02. 8:30 1041 + 0,5
Mo, 06.02. 8:00 1041 + 0,2
Mo, 06.02. 7:30 1041 - 0,1
Mo, 06.02. 7:00 1041 - 0,5
Ortszeit Schneehöhe (cm)
Mo, 06.02. 7:00 0
Mo, 06.02. 1:00 0
So, 05.02. 19:00 0
So, 05.02. 13:00 0
So, 05.02. 7:00 0
So, 05.02. 1:00 0
Sa, 04.02. 19:00 0
Sa, 04.02. 13:00 0
Ortszeit Schneehöhe (cm)
Mo, 06.02. 10:00 0
Mo, 06.02. 9:50 0
Mo, 06.02. 9:40 0
Mo, 06.02. 9:30 0
Mo, 06.02. 9:20 0
Mo, 06.02. 9:10 0
Mo, 06.02. 9:00 0
Mo, 06.02. 8:30 0
Mo, 06.02. 8:00 0
Mo, 06.02. 7:30 0
Mo, 06.02. 7:00 0
Link zu dieser Seite / Seite empfehlen

Das Wetter in ...